Regional Weather Roundup
Issued by NWS

Home | Current Version | Previous Version | Text Only | Print | Product List | Glossary On
Versions: 1 2 3 4 5 6 7 8 9 10 11 12 13 14 15 16 17 18 19 20 21 22 23 24 25 26 27 28 29 30 31 32 33 34 35 36 37 38 39 40 41 42 43 44 45 46 47 48 49 50
000
ASUS43 KBIS 212310
RWRND

NORTH DAKOTA REGIONAL WEATHER ROUNDUP
NATIONAL WEATHER SERVICE BISMARCK ND
600 PM CDT THU AUG 21 2014

NOTE: "FAIR" INDICATES FEW OR NO CLOUDS BELOW 12,000 FEET WITH NO
SIGNIFICANT WEATHER AND/OR OBSTRUCTIONS TO VISIBILITY.


NDZ001>003-009>011-017-220000-
NORTHWEST NORTH DAKOTA

CITY           SKY/WX    TMP DP  RH WIND       PRES   REMARKS
WILLISTON      PTSUNNY   76  56  49 N8        29.96S
MINOT          MOSUNNY   76  63  64 N10       29.89R
MINOT AFB      PTSUNNY   75  65  69 N9        29.90R
$$

NDZ018>021-031>035-040>046-220000-
SOUTHWEST NORTH DAKOTA

CITY           SKY/WX    TMP DP  RH WIND       PRES   REMARKS
BISMARCK       MOSUNNY   82  62  50 N13       29.89S
DICKINSON      MOSUNNY   76  60  57 N12       29.95R
GARRISON         N/A     79  60  52 NW12      29.91R
HETTINGER ARPT MOSUNNY   80  57  45 N9        29.95R
$$

NDZ004>008-012>016-024-026-027-054-220000-
NORTHEAST NORTH DAKOTA

CITY           SKY/WX    TMP DP  RH WIND       PRES   REMARKS
GRAND FORKS    PTSUNNY   78  68  71 CALM      29.81R
GRND FRKS AFB  PTSUNNY   77  70  80 SE6       29.82S
DEVILS LAKE    MOSUNNY   77  64  65 NW10      29.84R
$$

NDZ022-023-025-028>030-036>039-047>053-220000-
SOUTHEAST NORTH DAKOTA

CITY           SKY/WX    TMP DP  RH WIND       PRES   REMARKS
FARGO          CLOUDY    76  71  85 E3        29.81S
JAMESTOWN      MOSUNNY   79  67  66 NW14      29.84R
$$




USA.gov is the U.S. government's official web portal to all federal, state and local government web resources and services.